Bergplaas, South Africa

7:55 AM SAST on July 21, 2017 (GMT +0200)
Bergplaas

Weather History for 68828 - October, 2012

Change the Weather History Date:

Friday, October 19, 2012

  Actual Average Record
Temperature  
Mean Temperature 57 °F -  
Max Temperature 64 °F 68 °F - ()
Min Temperature 50 °F 52 °F - ()
Degree Days  
Heating Degree Days 8    
Growing Degree Days 7 (Base 50)    
Moisture  
Dew Point 46 °F    
Average Humidity 71    
Maximum Humidity 94    
Minimum Humidity 38    
Precipitation  
Precipitation 0.00 in - - ()
Sea Level Pressure  
Sea Level Pressure 29.99 in    
Wind  
Wind Speed 11 mph ()    
Max Wind Speed 20 mph    
Max Gust Speed -    
Visibility 7.2 miles    
Events Rain    
T = Trace of Precipitation, MM = Missing Value Source: Averaged Metar Reports

Daily Weather History Graph

Daily Weather History Graph

Search for Another Location

Airport or City:

Trip Planner

Search our weather history database for the weather conditions in past years. The results will help you decide how hot, cold, wet, or windy it might be!

Date:

Astronomy

Oct. 19, 2012 Rise Set
Actual Time 5:43 AM SAST 6:47 PM SAST
Civil Twilight 5:17 AM SAST 7:13 PM SAST
Nautical Twilight 4:47 AM SAST 7:44 PM SAST
Astronomical Twilight 4:15 AM SAST 8:15 PM SAST
Moon 8:49 AM SAST (10/19) 11:22 PM SAST (10/19)
Length of Visible Light 13h 55m
Length of Day
13h 03m
Waxing Crescent, 21% of the Moon is Illuminated
Oct 19
Waxing Crescent
Oct 22
First Quarter
Oct 29
Full
Nov 7
Last Quarter
Nov 14
New

Hourly Weather History & Observations

Time (SAST) Temp. Dew Point Humidity Pressure Visibility Wind Dir Wind Speed Gust Speed Precip Events Conditions
12:00 AM 55.4 °F 50.0 °F 82% 29.92 in - NW 10.4 mph - N/A   Clear
1:00 AM 55.4 °F 51.8 °F 88% 29.89 in 6.2 mi WNW 4.6 mph - N/A Rain Light Rain
2:00 AM 53 °F 51 °F 89% 29.92 in 2 mi West 15.0 mph - -  
2:00 AM 53.6 °F 51.8 °F 94% 29.92 in - West 16.1 mph - N/A Rain Rain
3:00 AM 51.8 °F 48.2 °F 88% 29.92 in 3.7 mi WNW 16.1 mph - N/A Rain Light Rain
4:00 AM 51.8 °F 48.2 °F 88% 29.92 in 6.2 mi WNW 11.5 mph - N/A Rain Light Rain
5:00 AM 51 °F 47 °F 80% 29.93 in 12 mi West 15.0 mph - - Rain Light Rain
5:00 AM 50.0 °F 46.4 °F 87% 29.92 in 6.2 mi West 16.1 mph - N/A   Mostly Cloudy
6:00 AM 50.0 °F 44.6 °F 82% 29.95 in 6.2 mi West 13.8 mph - N/A   Mostly Cloudy
7:00 AM 51.8 °F 46.4 °F 82% 29.98 in 6.2 mi WNW 13.8 mph - N/A   Mostly Cloudy
8:00 AM 52 °F 45 °F 69% 30.00 in 12 mi WNW 13.8 mph - -   Partly Cloudy
8:00 AM 51.8 °F 44.6 °F 76% 29.98 in 6.2 mi NW 15.0 mph - N/A   Mostly Cloudy
9:00 AM 57.2 °F 44.6 °F 63% 29.98 in 6.2 mi WNW 17.3 mph - N/A   Mostly Cloudy
10:00 AM 55.4 °F 42.8 °F 63% 30.01 in 6.2 mi West 17.3 mph - N/A   Scattered Clouds
11:00 AM 57 °F 46 °F 56% 30.01 in 12 mi West 18.4 mph - -   Mostly Cloudy
11:00 AM 59.0 °F 44.6 °F 59% 30.01 in 6.2 mi West 19.6 mph - N/A   Mostly Cloudy
12:00 PM 60.8 °F 42.8 °F 52% 29.98 in 6.2 mi West 18.4 mph - N/A   Scattered Clouds
1:00 PM 60.8 °F 42.8 °F 52% 29.98 in 6.2 mi West 16.1 mph - N/A   Mostly Cloudy
2:00 PM 60 °F 41 °F 38% 29.99 in 12 mi West 15.0 mph - -   Mostly Cloudy
2:00 PM 60.8 °F 41.0 °F 48% 29.98 in 6.2 mi West 15.0 mph - N/A   Mostly Cloudy
3:00 PM 62.6 °F 42.8 °F 48% 29.95 in 6.2 mi SW 12.7 mph - N/A   Scattered Clouds
4:00 PM 59.0 °F 46.4 °F 63% 29.95 in 6.2 mi South 9.2 mph - N/A   Scattered Clouds
5:00 PM 60 °F 49 °F 58% 29.99 in 12 mi SSE 9.2 mph - -   Partly Cloudy
5:00 PM 60.8 °F 50.0 °F 68% 29.98 in 6.2 mi SSE 9.2 mph - N/A   Scattered Clouds
6:00 PM 57.2 °F 48.2 °F 72% 30.01 in 6.2 mi SE 10.4 mph - N/A   Mostly Cloudy
7:00 PM 53.6 °F 46.4 °F 77% 30.04 in 6.2 mi East 5.8 mph - N/A   Scattered Clouds
8:00 PM 53 °F 46 °F 71% 30.07 in 12 mi ENE 3.5 mph - -   Scattered Clouds
8:00 PM 53.6 °F 46.4 °F 77% 30.06 in 6.2 mi ENE 3.5 mph - N/A   Partly Cloudy
9:00 PM 53.6 °F 46.4 °F 77% 30.09 in 6.2 mi East 3.5 mph - N/A   Mostly Cloudy
10:00 PM 51.8 °F 46.4 °F 82% 30.09 in 6.2 mi Variable 1.2 mph - N/A   Mostly Cloudy
11:00 PM 50.0 °F 46.4 °F 87% 30.12 in 6.2 mi NW 3.5 mph - N/A   Mostly Cloudy